This is the latest recevied weather packets stored in our database for station/object KB4JAC-13. If no packets are shown the sender has not sent any weather packets the latest 10 day(s).
| Time | Temp. | Humidity | Pressure | Rain* | Wind** | Luminosity | Snow |
|---|---|---|---|---|---|---|---|
| 1788403857 | 25.56° C | 90% | 992.2 hPa | 0 mm | - | - | - |
| 1788403256 | 25.56° C | 90% | 992.2 hPa | 0 mm | - | - | - |
| 1788402655 | 26.11° C | 89% | 992.1 hPa | 0 mm | - | - | - |
| 1788402054 | 26.11° C | 88% | 992 hPa | 0 mm | - | - | - |
| 1788401453 | 26.67° C | 87% | 992.1 hPa | 0 mm | - | - | - |
| 1788400853 | 26.67° C | 86% | 992.1 hPa | 0 mm | - | - | - |
| 1788400252 | 27.22° C | 84% | 992 hPa | 0 mm | - | - | - |
| 1788399651 | 27.78° C | 83% | 991.9 hPa | 0 mm | - | - | - |
| 1788399050 | 27.78° C | 82% | 991.8 hPa | 0 mm | - | - | - |
| 1788398449 | 27.78° C | 80% | 991.7 hPa | 0 mm | - | - | - |
| 1788397848 | 28.33° C | 79% | 991.6 hPa | 0 mm | - | - | - |
| 1788397247 | 28.33° C | 77% | 991.5 hPa | 0 mm | - | - | - |
| 1788396646 | 28.89° C | 76% | 991.5 hPa | 0 mm | - | - | - |
| 1788396046 | 28.89° C | 75% | 991.4 hPa | 0 mm | - | - | - |
| 1788395446 | 29.44° C | 73% | 991.6 hPa | 0 mm | - | - | - |
| 1788394845 | 29.44° C | 71% | 991.3 hPa | 0 mm | - | - | - |
| 1788394244 | 30° C | 69% | 991.2 hPa | 0 mm | - | - | - |
| 1788393643 | 30° C | 67% | 991.3 hPa | 0 mm | - | - | - |
| 1788393042 | 30.56° C | 65% | 991 hPa | 0 mm | - | - | - |
| 1788392441 | 31.11° C | 63% | 991.2 hPa | 0 mm | - | - | - |
| 1788391841 | 32.22° C | 60% | 991.2 hPa | 0 mm | - | - | - |
| 1788391240 | 32.78° C | 60% | 991.3 hPa | 0 mm | - | - | - |
| 1788390639 | 33.89° C | 57% | 991.2 hPa | 0 mm | - | - | - |
| 1788390038 | 34.44° C | 55% | 991.1 hPa | 0 mm | - | - | - |
| 1788389437 | 34.44° C | 54% | 991.3 hPa | 0 mm | - | - | - |
* Rain since midnight (hover to see other rain measurements)
** Current wind speed in m/s (hover to see current wind gust speed)